This is the latest recevied weather packets stored in our database for station/object KE5VT. If no packets are shown the sender has not sent any weather packets the latest 10 day(s).
| Time | Temp. | Humidity | Pressure | Rain* | Wind** | Luminosity | Snow |
|---|---|---|---|---|---|---|---|
| 1787929333 | 26.11° C | 87% | 1014.4 hPa | 0 mm | - | 371 W/m² | - |
| 1787929030 | 26.11° C | 88% | 1014.3 hPa | 0 mm | - | 157 W/m² | - |
| 1787928726 | 25.56° C | 88% | 1014.2 hPa | 0 mm | - | 112 W/m² | - |
| 1787928423 | 25.56° C | 89% | 1014.4 hPa | 0 mm | - | 77 W/m² | - |
| 1787928122 | 25.56° C | 90% | 1014.2 hPa | 0 mm | - | 80 W/m² | - |
| 1787927822 | 25° C | 90% | 1014.3 hPa | 0 mm | - | 72 W/m² | - |
| 1787927517 | 25° C | 92% | 1014.2 hPa | 0 mm | - | 82 W/m² | - |
| 1787927213 | 25° C | 93% | 1014 hPa | 0 mm | - | 92 W/m² | - |
| 1787926908 | 24.44° C | 94% | 1014.2 hPa | 0 mm | - | 71 W/m² | - |
| 1787926607 | 24.44° C | 94% | 1014.1 hPa | 0 mm | - | 72 W/m² | - |
| 1787926306 | 24.44° C | 94% | 1014 hPa | 0 mm | - | 95 W/m² | - |
| 1787926002 | 23.89° C | 95% | 1014 hPa | 0 mm | - | 75 W/m² | - |
| 1787925697 | 23.89° C | 95% | 1014.2 hPa | 0 mm | - | 236 W/m² | - |
| 1787925396 | 23.89° C | 95% | 1014.2 hPa | 0 mm | - | 62 W/m² | - |
| 1787925095 | 23.89° C | 95% | 1014 hPa | 0 mm | - | 61 W/m² | - |
| 1787924794 | 23.89° C | 96% | 1013.9 hPa | 0 mm | - | 72 W/m² | - |
| 1787924490 | 23.33° C | 96% | 1013.9 hPa | 0 mm | - | 119 W/m² | - |
| 1787924185 | 23.33° C | 97% | 1013.9 hPa | 0 mm | - | 130 W/m² | - |
| 1787923880 | 23.33° C | 97% | 1014 hPa | 0 mm | - | 58 W/m² | - |
| 1787923579 | 23.33° C | 97% | 1014 hPa | 0 mm | - | 57 W/m² | - |
| 1787923275 | 23.33° C | 97% | 1014 hPa | 0 mm | - | 68 W/m² | - |
| 1787922970 | 23.33° C | 97% | 1013.9 hPa | 0 mm | - | 68 W/m² | - |
| 1787922670 | 23.33° C | 97% | 1013.7 hPa | 0 mm | - | 69 W/m² | - |
| 1787922369 | 23.33° C | 98% | 1013.7 hPa | 0 mm | - | 76 W/m² | - |
| 1787922067 | 22.78° C | 98% | 1013.7 hPa | 0 mm | - | 76 W/m² | - |
* Rain latest hour (hover to see other rain measurements)
** Current wind speed in m/s (hover to see current wind gust speed)